,,Stat5,,Stat1,,Stat2,,Stat3,,Stat4,,Wind1,,Wind1,
time,status,PA1M_AVG,status,PR1M_SUM,status,RH1M_AVG,status,SR1M_AVG,status,TA1M_AVG,status,W1dAve1m,status,W1sAve1m,
2002-09-26, 00:00:01,VALID,917.168,VALID,0,VALID,82.3517,VALID,-0.0169808,VALID,22.4529,VALID,56,VALID,2.49639,
2002-09-26, 00:01:01,VALID,917.148,VALID,0,VALID,82.4712,VALID,-0.0509425,VALID,22.4659,VALID,55,VALID,2.03273,
2002-09-26, 00:02:00,VALID,917.119,VALID,0,VALID,82.5704,VALID,-0.0679233,VALID,22.45,VALID,73,VALID,2.36888,
2002-09-26, 00:03:01,VALID,917.124,VALID,0,VALID,82.6072,VALID,-0.0339617,VALID,22.45,VALID,81,VALID,2.17647,
2002-09-26, 00:04:01,VALID,917.123,VALID,0,VALID,82.6696,VALID,-0.0679233,VALID,22.4335,VALID,75,VALID,2.00391,
2002-09-26, 00:05:01,VALID,917.103,VALID,0,VALID,82.8946,VALID,-0.0509425,VALID,22.4206,VALID,71,VALID,2.0258,
2002-09-26, 00:06:01,VALID,917.116,VALID,0,VALID,82.99,VALID,0,VALID,22.3783,VALID,64,VALID,1.6104,
2002-09-26, 00:07:01,VALID,917.131,VALID,0,VALID,83.0866,VALID,-0.0339617,VALID,22.3727,VALID,55,VALID,1.98438,
2002-09-26, 00:08:01,VALID,917.134,VALID,0,VALID,83.1871,VALID,0,VALID,22.3366,VALID,73,VALID,2.35807,
2002-09-26, 00:09:01,VALID,917.156,VALID,0,VALID,83.0549,VALID,0,VALID,22.3463,VALID,36,VALID,1.87044,
2002-09-26, 00:10:01,VALID,917.166,VALID,0,VALID,82.873,VALID,0,VALID,22.3627,VALID,55,VALID,2.17076,
2002-09-26, 00:11:01,VALID,917.171,VALID,0,VALID,82.7942,VALID,-0.0509425,VALID,22.3751,VALID,45,VALID,1.60276,
2002-09-26, 00:12:01,VALID,917.18,VALID,0,VALID,82.845,VALID,-0.0339617,VALID,22.385,VALID,66,VALID,1.31747,
2002-09-26, 00:13:01,VALID,917.188,VALID,0,VALID,82.6657,VALID,-0.0169808,VALID,22.4015,VALID,49,VALID,2.553,
2002-09-26, 00:14:01,VALID,917.157,VALID,0,VALID,82.7802,VALID,-0.0509425,VALID,22.4042,VALID,31,VALID,1.38346,
2002-09-26, 00:15:01,VALID,917.149,VALID,0,VALID,82.8094,VALID,-0.0169808,VALID,22.4006,VALID,60,VALID,1.55924,
2002-09-26, 00:16:01,VALID,917.147,VALID,0,VALID,82.6835,VALID,-0.0509425,VALID,22.398,VALID,48,VALID,2.7181,
2002-09-26, 00:17:01,VALID,917.138,VALID,0,VALID,82.035,VALID,-0.0509425,VALID,22.4532,VALID,76,VALID,2.79353,
2002-09-26, 00:18:01,VALID,917.113,VALID,0,VALID,81.679,VALID,-0.0169808,VALID,22.4917,VALID,45,VALID,2.90224,
2002-09-26, 00:19:01,VALID,917.097,VALID,0,VALID,81.5811,VALID,0,VALID,22.5396,VALID,54,VALID,2.2223,
2002-09-26, 00:20:01,VALID,917.126,VALID,0,VALID,81.8939,VALID,-0.0339617,VALID,22.5596,VALID,56,VALID,1.47698,
2002-09-26, 00:21:01,VALID,917.119,VALID,0,VALID,82.0287,VALID,-0.0169808,VALID,22.5305,VALID,74,VALID,1.34896,
2002-09-26, 00:22:01,VALID,917.123,VALID,0,VALID,82.124,VALID,-0.0339617,VALID,22.5014,VALID,102,VALID,1.88694,
2002-09-26, 00:23:01,VALID,917.15,VALID,0,VALID,82.3224,VALID,-0.0339617,VALID,22.4621,VALID,74,VALID,1.35699,
2002-09-26, 00:24:01,VALID,917.142,VALID,0,VALID,82.2932,VALID,-0.0169808,VALID,22.4491,VALID,74,VALID,1.62701,
2002-09-26, 00:25:00,VALID,917.098,VALID,0,VALID,82.2754,VALID,-0.0339617,VALID,22.4397,VALID,110,VALID,2.0002,
2002-09-26, 00:26:00,VALID,917.098,VALID,0,VALID,82.4941,VALID,0,VALID,22.44,VALID,75,VALID,0.921402,
2002-09-26, 00:27:00,VALID,917.089,VALID,0,VALID,82.035,VALID,-0.0509425,VALID,22.44,VALID,86,VALID,1.71579,
2002-09-26, 00:28:00,VALID,917.054,VALID,0,VALID,82.1825,VALID,-0.0169808,VALID,22.4365,VALID,94,VALID,1.92339,
2002-09-26, 00:29:00,VALID,917.044,VALID,0,VALID,81.9142,VALID,-0.0339617,VALID,22.4362,VALID,87,VALID,2.74544,
2002-09-26, 00:30:00,VALID,917.018,VALID,0,VALID,82.0236,VALID,0,VALID,22.4588,VALID,98,VALID,1.8151,
2002-09-26, 00:31:00,VALID,916.999,VALID,0,VALID,82.4165,VALID,-0.0169808,VALID,22.4524,VALID,68,VALID,0.831473,
2002-09-26, 00:32:00,VALID,916.973,VALID,0,VALID,82.6276,VALID,-0.0509425,VALID,22.42,VALID,121,VALID,0.548478,
2002-09-26, 00:33:00,VALID,916.941,VALID,0,VALID,82.7306,VALID,-0.0679233,VALID,22.3883,VALID,83,VALID,0.929451,
2002-09-26, 00:34:00,VALID,916.933,VALID,0,VALID,82.8425,VALID,-0.0509425,VALID,22.363,VALID,79,VALID,1.23269,
2002-09-26, 00:35:00,VALID,916.91,VALID,0,VALID,82.8997,VALID,-0.0679233,VALID,22.3307,VALID,67,VALID,1.1849,
2002-09-26, 00:36:00,VALID,916.877,VALID,0,VALID,82.9417,VALID,-0.0679233,VALID,22.311,VALID,90,VALID,0.931641,
2002-09-26, 00:37:00,VALID,916.865,VALID,0,VALID,82.695,VALID,-0.0849042,VALID,22.3013,VALID,89,VALID,2.33485,
2002-09-26, 00:38:00,VALID,916.852,VALID,0,VALID,82.5805,VALID,-0.0509425,VALID,22.3339,VALID,80,VALID,2.49107,
2002-09-26, 00:39:00,VALID,916.824,VALID,0,VALID,82.7637,VALID,-0.0849042,VALID,22.3404,VALID,80,VALID,1.60016,
2002-09-26, 00:40:00,VALID,916.797,VALID,0,VALID,83.0065,VALID,-0.101885,VALID,22.3139,VALID,82,VALID,1.10606,
2002-09-26, 00:41:00,VALID,916.786,VALID,0,VALID,82.9124,VALID,-0.0509425,VALID,22.2951,VALID,76,VALID,1.39485,
2002-09-26, 00:42:00,VALID,916.756,VALID,0,VALID,82.6365,VALID,-0.0679233,VALID,22.2886,VALID,82,VALID,2.49523,
2002-09-26, 00:43:00,VALID,916.7,VALID,0,VALID,82.2893,VALID,-0.0849042,VALID,22.3113,VALID,51,VALID,1.98785,
2002-09-26, 00:44:00,VALID,916.675,VALID,0,VALID,82.5882,VALID,-0.0339617,VALID,22.3336,VALID,56,VALID,2.02192,
2002-09-26, 00:45:00,VALID,916.679,VALID,0,VALID,82.4038,VALID,-0.0849042,VALID,22.3145,VALID,78,VALID,2.14129,
2002-09-26, 00:46:00,VALID,916.665,VALID,0,VALID,82.4381,VALID,-0.0679233,VALID,22.311,VALID,57,VALID,2.14163,
2002-09-26, 00:47:00,VALID,916.654,VALID,0,VALID,82.2448,VALID,-0.0339617,VALID,22.3137,VALID,68,VALID,2.60109,
2002-09-26, 00:48:00,VALID,916.648,VALID,0,VALID,82.2881,VALID,0.0509425,VALID,22.3284,VALID,69,VALID,2.13028,
2002-09-26, 00:49:00,VALID,916.637,VALID,0,VALID,82.4369,VALID,0.0679233,VALID,22.3225,VALID,58,VALID,1.82769,
2002-09-26, 00:50:00,VALID,916.618,VALID,0,VALID,82.7408,VALID,0.0509425,VALID,22.2934,VALID,74,VALID,1.37283,
2002-09-26, 00:51:00,VALID,916.614,VALID,0,VALID,82.6403,VALID,0.0679233,VALID,22.2705,VALID,56,VALID,2.23676,
2002-09-26, 00:52:00,VALID,916.61,VALID,0,VALID,82.4203,VALID,0.0169808,VALID,22.2643,VALID,88,VALID,3.01295,
2002-09-26, 00:53:00,VALID,916.592,VALID,0,VALID,82.255,VALID,0.0339617,VALID,22.3096,VALID,79,VALID,2.33353,
2002-09-26, 00:54:00,VALID,916.576,VALID,0,VALID,82.5208,VALID,0.0339617,VALID,22.3257,VALID,52,VALID,1.61245,
2002-09-26, 00:55:00,VALID,916.598,VALID,0,VALID,82.5551,VALID,0,VALID,22.3028,VALID,56,VALID,1.73269,
2002-09-26, 00:56:00,VALID,916.592,VALID,0,VALID,82.222,VALID,0.0849042,VALID,22.3128,VALID,74,VALID,2.77821,
2002-09-26, 00:57:00,VALID,916.599,VALID,0,VALID,81.9422,VALID,0.0509425,VALID,22.3446,VALID,40,VALID,3.20378,
2002-09-26, 00:58:00,VALID,916.594,VALID,0,VALID,81.7133,VALID,0.0849042,VALID,22.396,VALID,46,VALID,2.6224,
2002-09-26, 00:59:00,VALID,916.568,VALID,0,VALID,81.782,VALID,0.0679233,VALID,22.4154,VALID,41,VALID,2.19643,
2002-09-26, 01:00:00,VALID,916.607,VALID,0,VALID,81.9689,VALID,0.0339617,VALID,22.4122,VALID,61,VALID,1.39784,
2002-09-26, 01:01:00,VALID,916.589,VALID,0,VALID,82.0605,VALID,0.0679233,VALID,22.3931,VALID,62,VALID,1.71804,
2002-09-26, 01:02:00,VALID,916.554,VALID,0,VALID,82.2423,VALID,0,VALID,22.3813,VALID,71,VALID,1.76394,
2002-09-26, 01:03:00,VALID,916.558,VALID,0,VALID,82.5577,VALID,-0.0679233,VALID,22.3436,VALID,64,VALID,2.15104,
2002-09-26, 01:04:00,VALID,916.541,VALID,0,VALID,82.7128,VALID,-0.0339617,VALID,22.308,VALID,68,VALID,1.77539,
2002-09-26, 01:05:00,VALID,916.557,VALID,0,VALID,82.7916,VALID,-0.0509425,VALID,22.2886,VALID,88,VALID,1.76215,
2002-09-26, 01:06:00,VALID,916.56,VALID,0,VALID,82.8336,VALID,-0.0849042,VALID,22.2854,VALID,74,VALID,2.00089,
2002-09-26, 01:07:00,VALID,916.548,VALID,0,VALID,82.7293,VALID,-0.0509425,VALID,22.2954,VALID,75,VALID,2.67188,
2002-09-26, 01:08:00,VALID,916.579,VALID,0,VALID,82.6238,VALID,-0.0849042,VALID,22.3016,VALID,76,VALID,2.35227,
2002-09-26, 01:09:00,VALID,916.581,VALID,0,VALID,82.6416,VALID,-0.0509425,VALID,22.3113,VALID,63,VALID,1.90899,
2002-09-26, 01:10:00,VALID,916.561,VALID,0,VALID,82.6276,VALID,-0.0849042,VALID,22.3069,VALID,77,VALID,1.69097,
2002-09-26, 01:11:00,VALID,916.533,VALID,0,VALID,82.5755,VALID,-0.0339617,VALID,22.3107,VALID,92,VALID,1.90799,
2002-09-26, 01:12:00,VALID,916.528,VALID,0,VALID,82.5271,VALID,-0.0339617,VALID,22.3304,VALID,79,VALID,2.94076,
2002-09-26, 01:13:00,VALID,916.507,VALID,0,VALID,82.6594,VALID,-0.101885,VALID,22.3371,VALID,73,VALID,2.06875,
2002-09-26, 01:14:00,VALID,916.501,VALID,0,VALID,82.7815,VALID,-0.0169808,VALID,22.3242,VALID,87,VALID,2.14704,
2002-09-26, 01:15:00,VALID,916.499,VALID,0,VALID,82.9633,VALID,-0.0339617,VALID,22.3083,VALID,87,VALID,1.89654,
2002-09-26, 01:16:00,VALID,916.48,VALID,0,VALID,82.7458,VALID,-0.0339617,VALID,22.2948,VALID,106,VALID,2.34523,
2002-09-26, 01:17:00,VALID,916.462,VALID,0,VALID,82.859,VALID,-0.0509425,VALID,22.291,VALID,107,VALID,1.80165,
2002-09-26, 01:18:00,VALID,916.472,VALID,0,VALID,82.9849,VALID,-0.0509425,VALID,22.2954,VALID,79,VALID,2.00087,
2002-09-26, 01:19:00,VALID,916.455,VALID,0,VALID,83.1273,VALID,-0.0849042,VALID,22.2789,VALID,96,VALID,1.20551,
2002-09-26, 01:20:00,VALID,916.466,VALID,0,VALID,83.1947,VALID,-0.0849042,VALID,22.2625,VALID,71,VALID,2.40603,
2002-09-26, 01:21:00,VALID,916.442,VALID,0,VALID,82.976,VALID,-0.0509425,VALID,22.2593,VALID,79,VALID,2.88702,
2002-09-26, 01:22:00,VALID,916.461,VALID,0,VALID,82.7916,VALID,-0.0509425,VALID,22.2951,VALID,90,VALID,2.17874,
2002-09-26, 01:23:00,VALID,916.476,VALID,0,VALID,82.6886,VALID,-0.0169808,VALID,22.3175,VALID,62,VALID,2.41322,
2002-09-26, 01:24:00,VALID,916.447,VALID,0,VALID,82.7522,VALID,-0.101885,VALID,22.3406,VALID,101,VALID,1.53668,
2002-09-26, 01:25:00,VALID,916.464,VALID,0,VALID,82.7776,VALID,-0.0679233,VALID,22.3474,VALID,86,VALID,1.71072,
2002-09-26, 01:26:00,VALID,916.468,VALID,0,VALID,82.8158,VALID,-0.0849042,VALID,22.3347,VALID,124,VALID,1.8826,
2002-09-26, 01:27:00,VALID,916.459,VALID,0,VALID,83.0218,VALID,-0.0849042,VALID,22.3177,VALID,55,VALID,1.67299,
2002-09-26, 01:28:00,VALID,916.444,VALID,0,VALID,83.1617,VALID,-0.0849042,VALID,22.2951,VALID,91,VALID,1.23858,
2002-09-26, 01:29:00,VALID,916.458,VALID,0,VALID,83.4389,VALID,-0.0849042,VALID,22.2593,VALID,62,VALID,1.73201,
2002-09-26, 01:30:00,VALID,916.439,VALID,0,VALID,83.3931,VALID,-0.101885,VALID,22.2302,VALID,74,VALID,2.41005,
2002-09-26, 01:31:00,VALID,916.433,VALID,0,VALID,83.1998,VALID,-0.0339617,VALID,22.2334,VALID,61,VALID,2.60547,
2002-09-26, 01:32:00,VALID,916.441,VALID,0,VALID,83.1248,VALID,-0.0849042,VALID,22.2525,VALID,52,VALID,2.01541,
2002-09-26, 01:33:00,VALID,916.433,VALID,0,VALID,83.0879,VALID,-0.0169808,VALID,22.2787,VALID,48,VALID,1.36675,
2002-09-26, 01:34:00,VALID,916.435,VALID,0,VALID,82.8336,VALID,-0.0339617,VALID,22.2784,VALID,101,VALID,2.00446,
2002-09-26, 01:35:00,VALID,916.429,VALID,0,VALID,82.5704,VALID,-0.0339617,VALID,22.3048,VALID,75,VALID,2.46534,
2002-09-26, 01:36:00,VALID,916.411,VALID,0,VALID,82.5526,VALID,-0.0509425,VALID,22.3204,VALID,73,VALID,2.11955,
2002-09-26, 01:37:00,VALID,916.412,VALID,0,VALID,82.5055,VALID,-0.0509425,VALID,22.3404,VALID,74,VALID,2.05785,
2002-09-26, 01:38:00,VALID,916.416,VALID,0,VALID,82.2957,VALID,-0.0509425,VALID,22.3371,VALID,91,VALID,1.67079,
2002-09-26, 01:39:00,VALID,916.372,VALID,0,VALID,82.2296,VALID,-0.0509425,VALID,22.3533,VALID,83,VALID,1.94596,
2002-09-26, 01:40:00,VALID,916.375,VALID,0,VALID,82.1279,VALID,-0.0509425,VALID,22.3662,VALID,84,VALID,2.30968,
2002-09-26, 01:41:00,VALID,916.402,VALID,0,VALID,82.2296,VALID,-0.0679233,VALID,22.3724,VALID,72,VALID,2.28103,
2002-09-26, 01:42:00,VALID,916.418,VALID,0,VALID,82.3046,VALID,-0.0169808,VALID,22.356,VALID,68,VALID,1.94571,
2002-09-26, 01:43:00,VALID,916.435,VALID,0,VALID,82.2474,VALID,-0.101885,VALID,22.3468,VALID,68,VALID,1.78977,
2002-09-26, 01:44:00,VALID,916.437,VALID,0,VALID,82.2563,VALID,-0.0679233,VALID,22.343,VALID,87,VALID,2.12986,
2002-09-26, 01:45:00,VALID,916.431,VALID,0,VALID,82.0465,VALID,-0.0849042,VALID,22.3727,VALID,78,VALID,2.50911,
2002-09-26, 01:46:00,VALID,916.398,VALID,0,VALID,81.9435,VALID,-0.0339617,VALID,22.3789,VALID,66,VALID,2.32444,
2002-09-26, 01:47:00,VALID,916.389,VALID,0,VALID,81.5836,VALID,-0.0169808,VALID,22.3912,VALID,65,VALID,2.9694,
2002-09-26, 01:48:00,VALID,916.391,VALID,0,VALID,81.4323,VALID,-0.0509425,VALID,22.4435,VALID,79,VALID,2.72924,
2002-09-26, 01:49:00,VALID,916.4,VALID,0,VALID,81.431,VALID,-0.0509425,VALID,22.4723,VALID,83,VALID,1.57332,
2002-09-26, 01:50:00,VALID,916.392,VALID,0,VALID,81.6281,VALID,-0.0679233,VALID,22.4729,VALID,53,VALID,1.57386,
2002-09-26, 01:51:00,VALID,916.377,VALID,0,VALID,81.7095,VALID,-0.0169808,VALID,22.4503,VALID,86,VALID,2.01964,
2002-09-26, 01:52:00,VALID,916.377,VALID,0,VALID,81.9689,VALID,-0.0339617,VALID,22.4274,VALID,85,VALID,1.45313,
2002-09-26, 01:53:00,VALID,916.367,VALID,0,VALID,81.9422,VALID,0,VALID,22.4177,VALID,82,VALID,1.91732,
2002-09-26, 01:54:00,VALID,916.349,VALID,0,VALID,81.9943,VALID,-0.0339617,VALID,22.3751,VALID,61,VALID,1.64865,
2002-09-26, 01:55:00,VALID,916.328,VALID,0,VALID,81.9117,VALID,-0.0509425,VALID,22.3759,VALID,128,VALID,1.93058,
2002-09-26, 01:56:00,VALID,916.32,VALID,0,VALID,82.1774,VALID,-0.0169808,VALID,22.3751,VALID,89,VALID,0.907652,
2002-09-26, 01:57:00,VALID,916.334,VALID,0,VALID,82.3974,VALID,-0.0679233,VALID,22.3695,VALID,81,VALID,1.37358,
2002-09-26, 01:58:00,VALID,916.356,VALID,0,VALID,82.5564,VALID,-0.0509425,VALID,22.3271,VALID,89,VALID,1.47424,
2002-09-26, 01:59:00,VALID,916.368,VALID,0,VALID,82.1787,VALID,-0.0339617,VALID,22.3175,VALID,85,VALID,1.61979,
2002-09-26, 02:00:00,VALID,916.363,VALID,0,VALID,82.6149,VALID,-0.0679233,VALID,22.3101,VALID,56,VALID,1.30469,
2002-09-26, 02:01:00,VALID,916.362,VALID,0,VALID,82.5793,VALID,-0.0679233,VALID,22.2881,VALID,31,VALID,1.54557,
2002-09-26, 02:02:00,VALID,916.32,VALID,0,VALID,82.138,VALID,0.0169808,VALID,22.2905,VALID,59,VALID,1.24576,
2002-09-26, 02:03:00,VALID,916.341,VALID,0,VALID,82.3618,VALID,0.0509425,VALID,22.3023,VALID,83,VALID,1.92067,
2002-09-26, 02:04:00,VALID,915.911,VALID,0,VALID,82.2614,VALID,0.0339617,VALID,22.3028,VALID,82,VALID,1.79285,
2002-09-26, 02:05:00,VALID,916.339,VALID,0,VALID,82.0363,VALID,0,VALID,22.2993,VALID,111,VALID,2.29096,
2002-09-26, 02:06:00,VALID,916.333,VALID,0,VALID,81.932,VALID,0.0169808,VALID,22.3352,VALID,105,VALID,1.91102,
2002-09-26, 02:07:00,VALID,916.295,VALID,0,VALID,81.9994,VALID,0.0339617,VALID,22.3581,VALID,74,VALID,1.60091,
2002-09-26, 02:08:00,VALID,916.273,VALID,0,VALID,81.9943,VALID,0.0339617,VALID,22.3613,VALID,85,VALID,2.06011,
2002-09-26, 02:09:00,VALID,916.264,VALID,0,VALID,82.2448,VALID,0.0509425,VALID,22.3246,VALID,66,VALID,1.17656,
2002-09-26, 02:10:00,VALID,916.252,VALID,0,VALID,82.0643,VALID,0.0679233,VALID,22.3093,VALID,96,VALID,1.76983,
2002-09-26, 02:11:00,VALID,916.234,VALID,0,VALID,82.311,VALID,0.0169808,VALID,22.3066,VALID,78,VALID,1.37216,
2002-09-26, 02:12:00,VALID,916.224,VALID,0,VALID,82.0554,VALID,0.0679233,VALID,22.2964,VALID,68,VALID,2.78083,
2002-09-26, 02:13:00,VALID,916.195,VALID,0,VALID,81.5149,VALID,0.0849042,VALID,22.3836,VALID,50,VALID,3.02539,
2002-09-26, 02:14:00,VALID,916.212,VALID,0,VALID,81.6663,VALID,0.0849042,VALID,22.4063,VALID,73,VALID,2.49327,
2002-09-26, 02:15:00,VALID,916.215,VALID,0,VALID,81.4984,VALID,0.0679233,VALID,22.4195,VALID,40,VALID,2.02496,
2002-09-26, 02:16:00,VALID,916.233,VALID,0,VALID,81.9079,VALID,0.101885,VALID,22.4259,VALID,59,VALID,0.772545,
2002-09-26, 02:17:00,VALID,916.262,VALID,0,VALID,82.2232,VALID,0.0169808,VALID,22.3678,VALID,74,VALID,1.37921,
2002-09-26, 02:18:00,VALID,916.269,VALID,0,VALID,82.5208,VALID,-0.0509425,VALID,22.3172,VALID,62,VALID,1.42543,
2002-09-26, 02:19:00,VALID,916.275,VALID,0,VALID,82.7293,VALID,-0.0679233,VALID,22.2493,VALID,64,VALID,1.29645,
2002-09-26, 02:20:00,VALID,916.3,VALID,0,VALID,82.798,VALID,-0.0849042,VALID,22.234,VALID,95,VALID,1.79774,
2002-09-26, 02:21:00,VALID,916.29,VALID,0,VALID,82.9277,VALID,-0.0849042,VALID,22.2111,VALID,86,VALID,1.64128,
2002-09-26, 02:22:00,VALID,916.257,VALID,0,VALID,83.0905,VALID,-0.0679233,VALID,22.1884,VALID,94,VALID,1.28537,
2002-09-26, 02:23:00,VALID,916.261,VALID,0,VALID,82.8946,VALID,-0.101885,VALID,22.1785,VALID,85,VALID,2.35335,
2002-09-26, 02:24:00,VALID,916.256,VALID,0,VALID,83.0014,VALID,-0.0849042,VALID,22.2014,VALID,83,VALID,2.04347,
2002-09-26, 02:25:00,VALID,916.257,VALID,0,VALID,83.0676,VALID,-0.0509425,VALID,22.1917,VALID,101,VALID,1.65033,
2002-09-26, 02:26:00,VALID,916.278,VALID,0,VALID,83.0103,VALID,-0.0849042,VALID,22.1984,VALID,102,VALID,1.64527,
2002-09-26, 02:27:00,VALID,916.237,VALID,0,VALID,83.1477,VALID,-0.0679233,VALID,22.1952,VALID,78,VALID,1.49696,
2002-09-26, 02:28:00,VALID,916.227,VALID,0,VALID,83.1222,VALID,-0.101885,VALID,22.1817,VALID,75,VALID,1.87326,
2002-09-26, 02:29:00,VALID,916.241,VALID,0,VALID,83.3867,VALID,-0.0509425,VALID,22.172,VALID,62,VALID,1.68446,
2002-09-26, 02:30:00,VALID,916.274,VALID,0,VALID,83.3295,VALID,-0.0849042,VALID,22.1397,VALID,63,VALID,1.89688,
2002-09-26, 02:31:00,VALID,916.273,VALID,0,VALID,83.3181,VALID,-0.101885,VALID,22.1567,VALID,63,VALID,2.03806,
2002-09-26, 02:32:00,VALID,916.273,VALID,0,VALID,83.4999,VALID,-0.0339617,VALID,22.1364,VALID,54,VALID,1.59067,
2002-09-26, 02:33:00,VALID,916.262,VALID,0,VALID,83.4745,VALID,0,VALID,22.1119,VALID,46,VALID,1.72698,
2002-09-26, 02:34:00,VALID,916.244,VALID,0,VALID,83.3727,VALID,0.0339617,VALID,22.0989,VALID,51,VALID,2.88368,
2002-09-26, 02:35:00,VALID,916.198,VALID,0,VALID,81.8723,VALID,0.0169808,VALID,22.1903,VALID,55,VALID,2.9145,
2002-09-26, 02:36:00,VALID,916.206,VALID,0,VALID,81.6014,VALID,0.0169808,VALID,22.2929,VALID,46,VALID,2.7691,
2002-09-26, 02:37:00,VALID,916.196,VALID,0,VALID,81.7527,VALID,0,VALID,22.3454,VALID,90,VALID,1.76161,
2002-09-26, 02:38:00,VALID,916.206,VALID,0,VALID,82.007,VALID,0.0169808,VALID,22.3252,VALID,88,VALID,2.64804,
2002-09-26, 02:39:00,VALID,916.186,VALID,0,VALID,82.2576,VALID,0.0339617,VALID,22.2996,VALID,78,VALID,1.77888,
2002-09-26, 02:40:00,VALID,916.185,VALID,0,VALID,82.6657,VALID,0,VALID,22.2767,VALID,63,VALID,1.52829,
2002-09-26, 02:41:00,VALID,916.165,VALID,0,VALID,83.0053,VALID,0.0339617,VALID,22.2455,VALID,85,VALID,1.75347,
2002-09-26, 02:42:00,VALID,916.165,VALID,0,VALID,83.0727,VALID,0,VALID,22.18,VALID,91,VALID,1.4197,
2002-09-26, 02:43:00,VALID,916.148,VALID,0,VALID,83.257,VALID,0.0339617,VALID,22.1606,VALID,102,VALID,1.72504,
2002-09-26, 02:44:00,VALID,916.145,VALID,0,VALID,83.5203,VALID,0.0509425,VALID,22.141,VALID,121,VALID,1.66049,
2002-09-26, 02:45:00,VALID,916.133,VALID,0,VALID,83.8572,VALID,0.0339617,VALID,22.1151,VALID,86,VALID,2.08013,
2002-09-26, 02:46:00,VALID,916.101,VALID,0,VALID,83.9908,VALID,0.0169808,VALID,22.0701,VALID,68,VALID,1.41927,
2002-09-26, 02:47:00,VALID,916.099,VALID,0,VALID,84.2006,VALID,0,VALID,22.0443,VALID,76,VALID,1.36318,
2002-09-26, 02:48:00,VALID,916.099,VALID,0,VALID,84.1815,VALID,0.0679233,VALID,22.0082,VALID,68,VALID,2.20247,
2002-09-26, 02:49:00,VALID,916.093,VALID,0,VALID,84.2044,VALID,0.0509425,VALID,22.0044,VALID,56,VALID,1.65148,
2002-09-26, 02:50:00,VALID,916.118,VALID,0,VALID,84.3773,VALID,0.0509425,VALID,21.999,VALID,88,VALID,1.86046,
2002-09-26, 02:51:00,VALID,916.133,VALID,0,VALID,84.4396,VALID,0.0849042,VALID,21.9823,VALID,85,VALID,1.56607,
2002-09-26, 02:52:00,VALID,916.103,VALID,0,VALID,84.5325,VALID,0.0679233,VALID,21.9732,VALID,97,VALID,1.71615,
2002-09-26, 02:53:00,VALID,916.071,VALID,0,VALID,84.4333,VALID,0.0679233,VALID,21.9705,VALID,105,VALID,2.17069,
2002-09-26, 02:54:00,VALID,916.046,VALID,0,VALID,84.3646,VALID,0.0679233,VALID,21.9591,VALID,96,VALID,1.88387,
2002-09-26, 02:55:00,VALID,916.03,VALID,0,VALID,84.3633,VALID,0.0679233,VALID,21.9893,VALID,79,VALID,1.71918,
2002-09-26, 02:56:00,VALID,915.997,VALID,0,VALID,84.2336,VALID,0.0169808,VALID,21.9923,VALID,98,VALID,1.97982,
2002-09-26, 02:57:00,VALID,915.969,VALID,0,VALID,84.3341,VALID,0.0339617,VALID,21.9958,VALID,66,VALID,1.49935,
2002-09-26, 02:58:00,VALID,915.98,VALID,0,VALID,84.1395,VALID,0.0339617,VALID,21.9958,VALID,82,VALID,2.79911,
2002-09-26, 02:59:00,VALID,915.981,VALID,0,VALID,84.3061,VALID,0.0169808,VALID,21.999,VALID,67,VALID,2.63281,
2002-09-26, 03:00:00,VALID,915.977,VALID,0,VALID,84.4727,VALID,0.0339617,VALID,21.9831,VALID,77,VALID,2.01657,
2002-09-26, 03:01:00,VALID,915.996,VALID,0,VALID,84.5045,VALID,0.0679233,VALID,21.9667,VALID,89,VALID,2.46389,
2002-09-26, 03:02:00,VALID,916.004,VALID,0,VALID,84.68,VALID,0.0169808,VALID,21.9511,VALID,73,VALID,1.94987,
2002-09-26, 03:03:00,VALID,916.014,VALID,0,VALID,84.7715,VALID,-0.0679233,VALID,21.9363,VALID,77,VALID,2.2309,
2002-09-26, 03:04:00,VALID,916.003,VALID,0,VALID,84.8529,VALID,-0.0849042,VALID,21.9169,VALID,78,VALID,2.2704,
2002-09-26, 03:05:00,VALID,916.016,VALID,0,VALID,84.8478,VALID,-0.0509425,VALID,21.9202,VALID,61,VALID,2.97813,
2002-09-26, 03:06:00,VALID,915.988,VALID,0,VALID,84.6558,VALID,-0.0679233,VALID,21.9493,VALID,56,VALID,2.85236,
2002-09-26, 03:07:00,VALID,916.008,VALID,0,VALID,84.4663,VALID,-0.0509425,VALID,21.971,VALID,77,VALID,2.82955,
2002-09-26, 03:08:00,VALID,915.999,VALID,0,VALID,84.3532,VALID,-0.0679233,VALID,21.9975,VALID,48,VALID,3.0682,
2002-09-26, 03:09:00,VALID,915.991,VALID,0,VALID,84.1319,VALID,-0.0679233,VALID,22.0532,VALID,67,VALID,3.42101,
2002-09-26, 03:10:00,VALID,916.013,VALID,0,VALID,84.0899,VALID,-0.0679233,VALID,22.0656,VALID,43,VALID,3.43924,
2002-09-26, 03:11:00,VALID,916.013,VALID,0,VALID,84.1128,VALID,-0.0679233,VALID,22.0753,VALID,69,VALID,2.38043,
2002-09-26, 03:12:00,VALID,916.052,VALID,0,VALID,84.0175,VALID,-0.0679233,VALID,22.0721,VALID,65,VALID,2.89732,
2002-09-26, 03:13:00,VALID,916.046,VALID,0,VALID,84.095,VALID,-0.0679233,VALID,22.0656,VALID,50,VALID,1.97556,
2002-09-26, 03:14:00,VALID,916.053,VALID,0,VALID,84.2018,VALID,-0.0509425,VALID,22.0459,VALID,57,VALID,2.31084,
2002-09-26, 03:15:00,VALID,916.076,VALID,0,VALID,84.2057,VALID,-0.0339617,VALID,22.0303,VALID,74,VALID,2.24894,
2002-09-26, 03:16:00,VALID,916.088,VALID,0,VALID,84.1815,VALID,-0.0679233,VALID,22.0204,VALID,64,VALID,2.50282,
2002-09-26, 03:17:00,VALID,916.095,VALID,0,VALID,84.1344,VALID,-0.0509425,VALID,22.0265,VALID,57,VALID,2.43273,
2002-09-26, 03:18:00,VALID,916.1,VALID,0,VALID,84.0721,VALID,-0.0679233,VALID,22.0427,VALID,42,VALID,2.49371,
2002-09-26, 03:19:00,VALID,916.091,VALID,0,VALID,84.1065,VALID,-0.0509425,VALID,22.0433,VALID,31,VALID,3.03013,
2002-09-26, 03:20:00,VALID,916.091,VALID,0,VALID,84.1675,VALID,-0.0679233,VALID,22.0433,VALID,56,VALID,2.89844,
2002-09-26, 03:21:00,VALID,916.077,VALID,0,VALID,84.1611,VALID,-0.0849042,VALID,22.0233,VALID,72,VALID,2.09328,
2002-09-26, 03:22:00,VALID,916.088,VALID,0,VALID,84.2184,VALID,-0.0509425,VALID,22.0169,VALID,30,VALID,3.04624,
2002-09-26, 03:23:00,VALID,916.087,VALID,0,VALID,84.3023,VALID,-0.0339617,VALID,22.0236,VALID,52,VALID,3.38411,
2002-09-26, 03:24:00,VALID,916.062,VALID,0,VALID,84.4218,VALID,-0.0339617,VALID,21.9904,VALID,59,VALID,2.93251,
2002-09-26, 03:25:00,VALID,916.107,VALID,0,VALID,84.4117,VALID,-0.0339617,VALID,21.9843,VALID,77,VALID,2.42448,
2002-09-26, 03:26:00,VALID,916.114,VALID,0,VALID,84.2196,VALID,-0.0679233,VALID,22.0004,VALID,48,VALID,3.62299,
2002-09-26, 03:27:00,VALID,916.1,VALID,0,VALID,84.0187,VALID,-0.0509425,VALID,22.0492,VALID,52,VALID,2.58914,
2002-09-26, 03:28:00,VALID,916.116,VALID,0,VALID,84.1446,VALID,-0.0679233,VALID,22.0524,VALID,63,VALID,2.45904,
2002-09-26, 03:29:00,VALID,916.143,VALID,0,VALID,84.2285,VALID,-0.0849042,VALID,22.0301,VALID,56,VALID,3.05997,
2002-09-26, 03:30:00,VALID,916.126,VALID,0,VALID,84.3099,VALID,-0.0849042,VALID,22.0074,VALID,36,VALID,2.80577,
2002-09-26, 03:31:00,VALID,916.142,VALID,0,VALID,84.165,VALID,-0.0339617,VALID,22.0204,VALID,50,VALID,3.04905,
2002-09-26, 03:32:00,VALID,916.152,VALID,0,VALID,84.3061,VALID,-0.0339617,VALID,22.0204,VALID,59,VALID,2.21636,